Kitzbuhel, Austria 16 day weather forecast

Slopes altitude range 760 m - 2490m

Number of lifts: 55 Pistes: 170km

In some cases the lift and piste totals shown are for the ski domain (e.g. Three Valleys) rather than individual resort (e.g. Courchevel)

Overview

The 16 day weather forecast is fully updated 4 times every day.

    • Mon 22 APR 2019
    • Mon 22
    • 9C 21C
    • Tue 23 APR 2019
    • Tue 23
    • 9C 16C
    • Wed 24 APR 2019
    • Wed 24
    • 10C 18C
    • Thu 25 APR 2019
    • Thu 25
    • 11C 20C
    • Fri 26 APR 2019
    • Fri 26
    • 6C 13C
    • Sat 27 APR 2019
    • Sat 27
    • 1C 7C
    • Sun 28 APR 2019
    • Sun 28
    • 6C 14C
    • Mon 29 APR 2019
    • Mon 29
    • 8C 19C
    • Tue 30 APR 2019
    • Tue 30
    • 7C 9C
    • Wed 01 MAY 2019
    • Wed 01
    • 6C 12C
    • Thu 02 MAY 2019
    • Thu 02
    • 1C 15C
    • Fri 03 MAY 2019
    • Fri 03
    • 2C 19C
    • Sat 04 MAY 2019
    • Sat 04
    • 5C 22C
    • Sun 05 MAY 2019
    • Sun 05
    • 9C 26C
    • Mon 06 MAY 2019
    • Mon 06
    • 8C 13C
    • Tue 07 MAY 2019
    • Tue 07
    • 5C 10C

Date:

Time Type 0°C level Temp Chill Snow Cloud Speed Gust Dir Press
3:00 3085m 5°C 5_6 0cm 92% 6mph 7mph 1016mB
6:00 3132m 5°C 5_5 0cm 92% 5mph 7mph 1014mB
9:00 3147m 9°C 9_2 0cm 76% 2mph 4mph 1011mB
12:00 2988m 21°C 21_3 0cm 74% 3mph 5mph 1008mB
15:00 3047m 21°C 21_3 0cm 14% 3mph 5mph 1006mB
18:00 3121m 21°C 21_5 0cm 8% 5mph 5mph 1006mB
21:00 3256m 7°C 7_7 0cm 42% 7mph 10mph 1007mB
0:00 3270m 5°C 5_6 0cm 63% 6mph 10mph 1006mB
3:00 3079m 5°C 5_7 0cm 92% 7mph 10mph 1004mB
6:00 2975m 5°C 5_7 0cm 96% 7mph 11mph 1003mB
9:00 2863m 9°C 9_6 0cm 100% 6mph 10mph 1001mB
12:00 2791m 16°C 16_8 0cm 100% 8mph 14mph 1001mB
15:00 2876m 16°C 16_8 0cm 100% 8mph 13mph 1001mB
18:00 2943m 16°C 16_6 0cm 100% 6mph 10mph 1003mB
21:00 3027m 7°C 7_6 0cm 99% 6mph 9mph 1005mB
0:00 3011m 7°C 7_6 0cm 100% 6mph 9mph 1005mB
3:00 3009m 6°C 6_6 0cm 91% 6mph 8mph 1007mB
6:00 2999m 6°C 6_6 0cm 49% 6mph 12mph 1008mB
9:00 2947m 10°C 10_6 0cm 24% 6mph 11mph 1008mB
12:00 3080m 18°C 18_8 0cm 53% 8mph 13mph 1008mB
15:00 3464m 18°C 18_8 0cm 60% 8mph 14mph 1008mB
18:00 3574m 18°C 18_5 0cm 79% 5mph 7mph 1009mB
21:00 3011m 7°C 7_3 0cm 100% 3mph 4mph 1014mB
0:00 2891m 6°C 6_3 0cm 100% 3mph 4mph 1017mB
3:00 3428m 5°C 5_5 0cm 76% 5mph 6mph 1016mB
6:00 3452m 5°C 5_7 0cm 52% 7mph 12mph 1016mB
9:00 3372m 11°C 11_8 0cm 61% 8mph 14mph 1015mB
12:00 3180m 20°C 20_8 0cm 44% 8mph 15mph 1013mB
15:00 3299m 20°C 20_6 0cm 27% 6mph 11mph 1013mB
18:00 3373m 20°C 20_6 0cm 38% 6mph 12mph 1014mB
21:00 3340m 10°C 10_7 0cm 100% 7mph 14mph 1015mB
0:00 3177m 10°C 10_8 0cm 100% 8mph 15mph 1014mB
3:00 2966m 7°C 7_6 0cm 65% 6mph 7mph 1014mB
6:00 2735m 7°C 7_1 0cm 34% 1mph 2mph 1013mB
9:00 2662m 11°C 11_6 0cm 33% 6mph 5mph 1014mB
12:00 2144m 13°C 13_8 0cm 67% 8mph 13mph 1016mB
15:00 1357m 6°C 6_3 11cm 100% 3mph 4mph 1019mB
18:00 1380m 6°C 6_4 7cm 100% 4mph 7mph 1022mB
21:00 1515m 1°C 1_4 2cm 100% 4mph 5mph 1024mB
0:00 1447m 1°C 1_4 2cm 100% 4mph 6mph 1024mB
3:00 1308m 0°C 0_4 2cm 100% 4mph 6mph 1025mB
6:00 1352m 0°C 0_3 2cm 100% 3mph 5mph 1026mB
9:00 1559m 1°C 1_2 1cm 89% 2mph 4mph 1025mB
12:00 1824m 7°C 7_3 0cm 59% 3mph 5mph 1024mB
15:00 2025m 7°C 7_3 0cm 42% 3mph 4mph 1023mB
18:00 2063m 8°C 8_4 0cm 59% 4mph 5mph 1025mB
21:00 2101m 3°C 3_5 0cm 91% 5mph 6mph 1028mB
0:00 2203m 2°C 2_5 0cm 82% 5mph 7mph 1027mB
3:00 2377m 1°C 1_6 0cm 49% 6mph 7mph 1026mB
6:00 2468m 2°C 2_5 0cm 72% 5mph 6mph 1025mB
9:00 2525m 6°C 6_1 0cm 96% 1mph 3mph 1023mB
12:00 2540m 14°C 14_2 0cm 94% 2mph 4mph 1022mB
15:00 2709m 14°C 14_3 0cm 87% 3mph 4mph 1020mB
18:00 2713m 14°C 14_1 0cm 81% 1mph 2mph 1021mB
21:00 2682m 6°C 6_4 0cm 78% 4mph 5mph 1022mB
0:00 2808m 4°C 4_4 0cm 80% 4mph 5mph 1021mB
3:00 2896m 4°C 4_4 0cm 83% 4mph 6mph 1019mB
6:00 2800m 4°C 4_3 0cm 88% 3mph 4mph 1016mB
9:00 2751m 8°C 8_2 0cm 99% 2mph 2mph 1013mB
12:00 2824m 19°C 19_3 0cm 100% 3mph 6mph 1009mB
15:00 2686m 21°C 21_7 0cm 100% 7mph 19mph 1006mB
18:00 2532m 21°C 21_8 0cm 96% 8mph 22mph 1007mB
21:00 2398m 10°C 10_6 0cm 100% 6mph 26mph 1007mB
0:00 2021m 10°C 10_7 0cm 100% 7mph 24mph 1007mB
3:00 1560m 8°C 8_6 0cm 100% 6mph 22mph 1007mB
6:00 1343m 7°C 7_8 0cm 100% 8mph 24mph 1007mB
9:00 1374m 7°C 7_13 0cm 100% 13mph 25mph 1008mB
12:00 1555m 9°C 9_11 0cm 100% 11mph 21mph 1008mB
15:00 1601m 10°C 10_14 0cm 94% 14mph 29mph 1009mB
18:00 1474m 10°C 10_12 0cm 57% 12mph 27mph 1010mB
21:00 1449m 5°C 5_8 0cm 6% 8mph 29mph 1013mB
0:00 1396m 4°C 4_8 0cm 6% 8mph 25mph 1014mB
3:00 1322m 3°C 3_7 0cm 1% 7mph 16mph 1014mB
6:00 1267m 3°C 3_8 0cm 1% 8mph 17mph 1014mB
9:00 1388m 6°C 6_11 0cm 8% 11mph 16mph 1014mB
12:00 1586m 12°C 12_9 0cm 10% 9mph 13mph 1012mB
15:00 1610m 12°C 12_7 0cm 45% 7mph 10mph 1011mB
18:00 1633m 12°C 12_2 0cm 23% 2mph 3mph 1012mB
21:00 1597m 4°C 4_5 0cm 3% 5mph 7mph 1015mB
0:00 1564m 3°C 3_5 0cm 2% 5mph 7mph 1014mB
Afternoon 0mm 0 1856m 15°C 15_4 0cm 43% 4mph 5mph 1009mB
Morning 0.03125mm 0.375 1985m 3°C 3_3 0cm 39% 3mph 4mph 1014mB
Afternoon 0mm 0 2309m 19°C 19_5 0cm 12% 5mph 8mph 1008mB
Morning 0mm 0 2780m 7°C 7_6 0cm 36% 6mph 11mph 1009mB
Afternoon 0mm 0 3040m 22°C 22_5 0cm 56% 5mph 9mph 1003mB
Morning 0mm 0 3226m 11°C 11_5 0cm 80% 5mph 5mph 1003mB
Afternoon 0mm 0 3382m 26°C 26_3 0cm 3% 3mph 9mph 999mB
Morning 0mm 0 2943m 13°C 13_4 0cm 53% 4mph 9mph 994mB
Afternoon 0.75mm 3.4375 2128m 13°C 13_6 0cm 100% 6mph 15mph 1000mB
Morning 0.192708mm 1.0625 1496m 7°C 7_14 0cm 100% 14mph 34mph 1008mB
Afternoon 0.0104167mm 0.125 1401m 10°C 10_11 0cm 97% 11mph 17mph 1014mB
Morning 0.078125mm 0.0625 1283m 3°C 3_5 0cm 84% 5mph 11mph 1021mB

16 day outlook at a glance

Forecast issued: 22/04/2019 08:21:34

Chat

Your comments and questions. In a resort? Let us know what it's like!


Characters left 250

For terms and conditions see Readers Comments on the Cookie and privacy policy page.